DW9896 Eastsound WA US current weather conditions

sailwx.info

Wind from 109 at 2 knots gusting 9

Air temperature 11.1° C
Dewpoint 8.3° C

Last reported at 2020-Jul-10 12:00 UTC.
Time now 2020-Jul-10 12:24 UTC

Location: N 48°40' W 122°52'.
View on Google Maps.

See reports from other nearby stations

  
Tides and Currents Weather Stations Pressure Air Temp Water Temp Dewpoint Dewpoint Depression Visibility Wind Speed Wind Dir Waves Ship Positions
date/time (UTC)wind fromknots sea level pressurealtimeterstation pressurevisibilityair tempwater tempwave heightnotes
2020-Jul-10 12:00 109 2 gusting 9 11.1
2020-Jul-10 11:46 106 3 gusting 7 11.7
2020-Jul-10 11:30 100 4 gusting 7 11.7
2020-Jul-10 11:16 360 3 gusting 6 11.7
2020-Jul-10 11:00 082 2 gusting 6 12.2
2020-Jul-10 10:46 098 6 gusting 9 12.2
2020-Jul-10 10:30 101 5 gusting 8 12.2
2020-Jul-10 10:16 126 1 gusting 5 11.7
2020-Jul-10 10:00 111 2 gusting 7 11.7
2020-Jul-10 09:46 108 6 gusting 10 11.7
2020-Jul-10 09:30 074 5 gusting 9 11.7
2020-Jul-10 09:15 113 3 gusting 12 12.2
2020-Jul-10 09:01 085 6 gusting 8 11.7
2020-Jul-10 08:45 136 3 gusting 13 12.2
2020-Jul-10 08:30 092 4 gusting 7 11.7
2020-Jul-10 08:15 113 5 gusting 7 12.2
2020-Jul-10 08:01 114 2 gusting 7 12.8
2020-Jul-10 07:48 100 4 gusting 7 12.8
2020-Jul-10 07:30 115 2 gusting 6 12.8
2020-Jul-10 07:17 150 1 gusting 6 12.8
2020-Jul-10 07:00 163 2 gusting 6 12.8
2020-Jul-10 06:46 090 4 gusting 6 12.8
2020-Jul-10 06:30 103 3 gusting 6 12.2
2020-Jul-10 06:17 091 1 gusting 5 12.2
2020-Jul-10 06:00 097 2 gusting 5 12.8
2020-Jul-10 05:45 096 1 gusting 6 12.2
2020-Jul-10 05:31 039 2 gusting 6 12.2
2020-Jul-10 05:16 102 3 gusting 6 12.2
2020-Jul-10 04:46 157 3 gusting 6 13.3
2020-Jul-10 04:30 103 4 gusting 8 13.3
2020-Jul-10 04:16 205 3 gusting 10 13.3
2020-Jul-10 04:00 114 6 gusting 9 13.3
2020-Jul-10 03:47 161 2 gusting 6 13.9
2020-Jul-10 03:30 104 2 gusting 8 13.9
2020-Jul-10 03:15 123 3 gusting 8 14.4
2020-Jul-10 03:00 108 6 gusting 9 14.4
2020-Jul-10 02:46 138 2 gusting 8 15.0
2020-Jul-10 02:30 120 3 gusting 8 15.0
2020-Jul-10 02:15 117 4 gusting 6 15.0
2020-Jul-10 02:01 116 4 gusting 10 15.0
2020-Jul-10 01:30 138 4 gusting 8 15.6
2020-Jul-10 01:16 123 3 gusting 8 16.1
2020-Jul-10 01:00 140 4 gusting 9 16.1
2020-Jul-10 00:46 109 3 gusting 8 16.1
2020-Jul-10 00:30 108 2 gusting 8 16.1
2020-Jul-10 00:16 136 3 gusting 10 16.1
2020-Jul-10 00:00 118 5 gusting 13 16.1
2020-Jul-09 23:45 172 5 gusting 9 16.1
2020-Jul-09 23:31 163 5 gusting 9 16.1
2020-Jul-09 23:01 178 5 gusting 8 16.1
2020-Jul-09 22:45 211 3 gusting 7 15.6
2020-Jul-09 22:31 107 1 gusting 8 14.4
2020-Jul-09 22:15 113 2 gusting 6 14.4
2020-Jul-09 22:01 163 2 gusting 8 13.9
2020-Jul-09 21:46 175 4 gusting 8 13.3
2020-Jul-09 21:31 173 5 gusting 9 13.3
2020-Jul-09 21:16 157 5 gusting 7 13.3
2020-Jul-09 21:01 208 3 gusting 8 13.3
2020-Jul-09 20:45 184 5 gusting 7 13.3
2020-Jul-09 20:31 149 3 gusting 8 13.3
2020-Jul-09 20:15 149 4 gusting 8 13.3
2020-Jul-09 20:01 082 2 gusting 6 13.3
2020-Jul-09 19:45 130 2 gusting 7 13.3
2020-Jul-09 19:31 153 3 gusting 9 13.3
2020-Jul-09 19:16 122 3 gusting 7 12.8
2020-Jul-09 19:01 106 3 gusting 9 12.8
2020-Jul-09 18:45 120 3 gusting 7 12.8
2020-Jul-09 18:30 159 2 gusting 6 13.3
2020-Jul-09 18:15 142 2 gusting 6 13.3
2020-Jul-09 18:01 124 1 gusting 6 13.3
2020-Jul-09 17:45 143 2 gusting 6 12.8
2020-Jul-09 17:31 162 2 gusting 6 12.8
2020-Jul-09 17:15 153 1 gusting 6 12.8
2020-Jul-09 16:46 094 2 gusting 6 12.8
2020-Jul-09 16:16 178 1 gusting 5 12.2
2020-Jul-09 16:01 142 0 gusting 3 12.2
2020-Jul-09 15:45 069 12.2
2020-Jul-09 15:31 005 0 gusting 2 12.2
2020-Jul-09 15:15 005 0 gusting 3 12.2
2020-Jul-09 15:02 343 11.7
2020-Jul-09 14:46 343 11.7
2020-Jul-09 14:30 343 0 gusting 2 12.2
2020-Jul-09 14:16 343 0 gusting 1 12.2
2020-Jul-09 14:00 343 0 gusting 1 12.2
2020-Jul-09 13:47 343 0 gusting 2 12.2
2020-Jul-09 13:16 343 0 gusting 2 11.7
2020-Jul-09 13:00 343 1 gusting 2 11.7
2020-Jul-09 12:46 343 1 gusting 2 11.7
2020-Jul-09 12:30 343 1 gusting 2 12.2
2020-Jul-09 12:16 343 1 gusting 2 12.2
2020-Jul-09 12:00 343 1 gusting 2 12.2
2020-Jul-09 11:45 343 1 gusting 2 12.2
2020-Jul-09 11:30 343 1 gusting 2 12.8
2020-Jul-09 11:15 343 12.8
2020-Jul-09 11:01 343 12.8
2020-Jul-09 10:45 343 1 gusting 3 12.8
2020-Jul-09 10:31 343 0 gusting 2 12.8
2020-Jul-09 10:15 343 1 gusting 5 13.3
2020-Jul-09 10:00 344 1 gusting 4 13.3
2020-Jul-09 09:46 344 2 gusting 3 13.3
2020-Jul-09 09:30 344 13.3
2020-Jul-09 09:15 344 13.3
2020-Jul-09 09:00 355 2 gusting 7 13.3
2020-Jul-09 08:46 312 3 gusting 6 13.9
2020-Jul-09 08:30 341 6 gusting 9 13.9
2020-Jul-09 08:17 338 4 gusting 11 13.9
2020-Jul-09 08:00 333 4 gusting 9 13.9
2020-Jul-09 07:31 333 2 gusting 5 13.9
2020-Jul-09 07:15 346 2 gusting 4 13.9
2020-Jul-09 07:01 340 2 gusting 6 13.9
2020-Jul-09 06:45 113 1 gusting 5 14.4
2020-Jul-09 06:30 113 0 gusting 1 14.4
2020-Jul-09 06:16 113 14.4
2020-Jul-09 06:01 113 1 gusting 3 14.4
2020-Jul-09 05:45 113 14.4
2020-Jul-09 05:31 113 15.0
2020-Jul-09 05:16 113 15.0
2020-Jul-09 05:01 113 15.0
2020-Jul-09 04:45 113 15.0
2020-Jul-09 04:30 113 1 gusting 2 15.0
2020-Jul-09 04:16 113 1 gusting 2 15.0
2020-Jul-09 04:01 113 15.0
2020-Jul-09 03:45 113 0 gusting 2 15.6
2020-Jul-09 03:31 113 1 gusting 2 15.6
2020-Jul-09 03:16 113 0 gusting 2 15.6
2020-Jul-09 03:00 113 2 gusting 5 15.6
2020-Jul-09 02:45 117 4 gusting 6 15.6
2020-Jul-09 02:31 152 0 gusting 5 15.6
2020-Jul-09 02:16 152 0 gusting 5 16.1
2020-Jul-09 02:01 173 0 gusting 2 16.7
2020-Jul-09 01:45 174 3 gusting 7 17.8
2020-Jul-09 01:31 189 5 gusting 6 17.2
2020-Jul-09 01:17 183 3 gusting 6 17.2
2020-Jul-09 01:00 160 3 gusting 7 17.2
2020-Jul-09 00:45 172 3 gusting 7 17.8
2020-Jul-09 00:31 125 1 gusting 8 18.3
2020-Jul-09 00:15 100 2 gusting 6 18.3
2020-Jul-09 00:00 194 3 gusting 7 17.8
2020-Jul-08 23:45 229 4 gusting 9 18.3
2020-Jul-08 23:32 222 4 gusting 7 18.3
2020-Jul-08 23:15 183 5 gusting 9 18.3
2020-Jul-08 23:00 169 4 gusting 8 18.3
2020-Jul-08 22:46 105 3 gusting 10 17.8
2020-Jul-08 22:30 183 3 gusting 6 17.2
2020-Jul-08 22:15 126 3 gusting 9 17.2
2020-Jul-08 22:01 190 6 gusting 9 17.2
2020-Jul-08 21:46 154 3 gusting 9 17.8
2020-Jul-08 21:32 150 5 gusting 10 17.8
2020-Jul-08 21:16 115 4 gusting 12 17.2
2020-Jul-08 21:00 125 4 gusting 12 17.2
2020-Jul-08 20:46 175 5 gusting 13 16.7
2020-Jul-08 20:32 134 4 gusting 10 15.6
2020-Jul-08 20:15 157 6 gusting 13 16.1
2020-Jul-08 20:00 161 5 gusting 10 15.6
2020-Jul-08 19:49 195 5 gusting 12 15.0
2020-Jul-08 19:32 180 5 gusting 12 15.0
2020-Jul-08 19:16 209 5 gusting 10 15.0
2020-Jul-08 19:00 169 6 gusting 11 14.4
2020-Jul-08 18:45 166 7 gusting 13 15.0
2020-Jul-08 18:30 169 4 gusting 7 14.4
2020-Jul-08 18:15 153 3 gusting 11 14.4
2020-Jul-08 18:01 146 3 gusting 7 14.4
2020-Jul-08 17:46 170 6 gusting 8 14.4
2020-Jul-08 17:30 175 4 gusting 8 14.4
2020-Jul-08 17:16 165 3 gusting 6 13.9
2020-Jul-08 17:00 176 6 gusting 8 13.9
2020-Jul-08 16:46 168 4 gusting 9 13.3
2020-Jul-08 16:30 161 3 gusting 8 12.8
2020-Jul-08 16:15 146 2 gusting 7 13.3
2020-Jul-08 15:45 083 5 gusting 7 12.2
2020-Jul-08 15:30 105 2 gusting 7 12.2
2020-Jul-08 15:15 117 2 gusting 7 11.7
2020-Jul-08 15:00 109 2 gusting 6 11.7
2020-Jul-08 14:46 109 3 gusting 6 11.7
2020-Jul-08 14:30 106 3 gusting 6 11.1
2020-Jul-08 14:15 105 2 gusting 6 10.6
2020-Jul-08 14:01 108 3 gusting 6 11.1
2020-Jul-08 13:45 109 1 gusting 3 11.1
2020-Jul-08 13:30 109 1 gusting 3 11.1
2020-Jul-08 13:17 109 1 gusting 3 10.6
2020-Jul-08 13:01 109 0 gusting 3 10.6
2020-Jul-08 12:45 109 2 gusting 5 10.6
2020-Jul-08 12:30 109 2 gusting 3 10.6
2020-Jul-08 12:16 109 1 gusting 3 11.1
2020-Jul-08 12:01 109 2 gusting 3 11.1